Date,TemperatureHighF,TemperatureAvgF,TemperatureLowF,DewpointHighF,DewpointAvgF,DewpointLowF,HumidityHigh,HumidityAvg,HumidityLow,PressureMaxIn,PressureMinIn,WindSpeedMaxMPH,WindSpeedAvgMPH,GustSpeedMaxMPH,PrecipitationSumIn
2014-1-1,71.9,54.8,39.8,31.0,27.6,24.3,62,37,17,30.28,30.17,3,1,6,0.00
2014-1-2,73.5,61.5,41.4,31.8,25.5,22.3,63,28,16,30.28,30.14,11,5,28,0.00
2014-1-3,76.7,61.7,50.7,31.6,27.4,23.7,45,28,15,30.14,29.97,8,2,18,0.00
2014-1-4,68.1,54.5,43.2,39.2,29.5,23.5,61,41,19,30.15,30.03,3,1,8,0.00
2014-1-5,65.3,47.1,35.4,32.8,29.2,22.8,78,53,25,30.33,30.15,4,0,10,0.00
2014-1-6,66.2,53.8,35.4,26.7,8.0,-2.8,68,19,7,30.40,30.25,13,5,28,0.00
2014-1-7,72.6,57.8,42.7,24.6,12.7,2.9,32,18,8,30.28,30.11,10,2,21,0.00
2014-1-8,68.9,53.9,39.5,27.0,20.5,13.7,49,29,12,30.21,30.12,5,1,10,0.00
2014-1-9,65.3,43.6,32.8,25.7,21.3,17.8,60,44,16,30.23,30.10,5,0,8,0.00
2014-1-10,65.5,46.8,31.1,26.8,23.7,21.3,69,44,19,30.32,30.18,3,0,8,0.00
2014-1-11,73.1,50.4,33.8,30.9,26.9,23.9,68,44,19,30.36,30.19,4,0,7,0.00
2014-1-12,70.1,51.5,36.8,31.0,28.8,26.9,70,46,21,30.33,30.14,8,1,16,0.00
2014-1-13,69.7,49.6,35.0,30.7,24.7,15.6,74,42,13,30.47,30.32,6,1,15,0.00
2014-1-14,69.3,47.4,31.7,25.7,21.4,17.6,62,39,15,30.48,30.37,5,0,10,0.00
2014-1-15,75.1,52.9,34.0,23.1,18.4,12.5,54,30,10,30.46,30.30,10,1,19,0.00
2014-1-16,73.7,50.5,32.8,27.0,23.1,15.3,64,39,11,30.32,30.18,4,1,9,0.00
2014-1-17,75.7,55.1,34.5,25.2,16.8,8.7,61,27,8,30.32,30.18,12,2,24,0.00
2014-1-18,78.0,54.6,34.0,24.6,17.9,11.0,53,29,8,30.29,30.16,6,1,13,0.00
2014-1-21,75.0,71.4,66.4,14.7,13.0,11.2,13,11,9,30.29,30.18,15,9,28,0.00
2014-1-22,55.8,54.9,54.4,19.9,19.6,18.6,25,25,24,29.97,29.97,2,0,3,0.00
2014-1-23,74.1,63.7,55.2,23.9,18.6,14.2,26,18,11,30.30,30.10,18,5,31,0.00
2014-1-24,64.2,58.5,51.5,22.3,19.5,18.0,27,22,18,30.41,30.30,23,13,41,0.00
2014-1-25,74.0,62.8,50.9,46.9,33.1,20.0,53,34,21,30.34,30.16,8,2,15,0.00
2014-1-26,71.9,55.0,40.2,35.8,31.8,26.3,72,45,19,30.22,30.06,8,1,16,0.00
2014-1-27,70.2,56.1,44.3,32.5,29.6,23.9,55,39,19,30.16,30.03,7,1,16,0.00
2014-1-28,72.8,53.2,36.0,30.8,27.0,21.6,69,40,15,30.24,30.11,7,1,14,0.00
2014-1-29,75.6,54.2,35.0,26.1,20.6,10.1,57,31,8,30.24,30.08,5,1,10,0.00
2014-1-30,79.3,59.3,39.6,29.3,22.8,15.1,47,28,10,30.10,29.93,8,2,16,0.00
2014-1-31,71.0,62.1,54.9,39.1,30.6,23.0,52,31,19,29.97,29.84,14,4,26,0.00
2014-2-1,59.3,53.3,48.4,47.2,38.0,25.8,88,58,30,30.08,29.90,12,2,20,0.02
2014-2-2,62.0,48.0,33.0,28.1,25.0,21.5,64,42,25,30.25,30.07,5,0,10,0.00
2014-2-3,61.3,46.1,37.0,36.0,26.1,16.7,86,50,19,30.10,29.92,12,2,26,0.00
2014-2-4,58.8,44.4,31.0,36.0,28.9,25.0,93,60,29,30.26,30.09,8,1,16,0.00
2014-2-5,61.1,51.0,38.1,30.8,28.1,24.6,61,42,26,30.23,30.06,8,2,15,0.00
2014-2-6,57.3,47.2,35.9,40.9,29.7,27.0,83,53,33,30.21,30.09,8,0,17,0.02
2014-2-7,64.9,50.4,39.1,43.6,36.7,31.8,94,64,30,30.28,30.13,6,1,13,0.03
2014-2-8,70.8,51.9,36.8,37.0,31.5,23.3,82,51,17,30.36,30.27,5,1,10,0.00
2014-2-9,77.4,56.6,39.2,39.8,32.9,30.0,71,45,20,30.31,30.12,9,1,20,0.00
2014-2-10,76.2,58.7,41.0,37.7,32.7,29.5,72,42,19,30.16,29.97,10,2,22,0.00
2014-2-11,74.9,57.2,39.6,37.0,30.8,25.7,74,41,18,30.19,30.03,7,2,15,0.00
2014-2-12,77.1,58.9,42.4,30.7,25.5,21.1,52,30,13,30.26,30.11,6,1,15,0.00
2014-2-13,82.4,60.3,40.5,28.3,25.5,22.8,52,29,13,30.24,30.07,6,1,12,0.00
2014-2-14,86.0,63.4,44.1,31.8,27.3,22.7,50,29,10,30.20,30.06,5,1,9,0.00
2014-2-15,89.3,66.8,44.9,31.6,24.0,15.7,48,24,7,30.14,30.03,8,2,14,0.00
2014-2-16,84.5,65.3,45.3,32.3,22.3,11.8,46,23,7,30.14,30.03,9,2,17,0.00
2014-2-17,85.8,65.0,47.5,28.2,21.0,11.0,37,21,6,30.16,30.02,7,2,14,0.00
2014-2-18,83.9,64.3,44.6,28.7,21.9,15.4,42,22,8,30.10,29.96,7,2,12,0.00
2014-2-19,77.0,61.6,44.7,32.0,24.0,16.1,46,26,12,30.02,29.88,7,2,12,0.00
2014-2-20,76.9,58.2,41.0,27.5,17.8,5.5,50,24,7,30.18,29.99,10,2,20,0.00
2014-2-21,79.0,56.8,37.9,17.0,11.2,1.5,35,19,6,30.17,30.00,6,1,12,0.00
2014-2-22,78.0,58.3,38.4,20.6,13.0,7.6,38,19,7,30.08,29.97,8,2,15,0.00
2014-2-23,77.7,60.3,45.0,25.2,16.8,13.3,35,20,9,30.14,30.04,6,1,12,0.00
2014-2-24,82.2,63.6,49.0,30.0,25.2,17.6,36,24,14,30.12,29.98,7,1,12,0.00
2014-2-25,75.6,61.5,47.0,37.6,31.9,26.8,49,34,21,30.11,30.01,6,1,13,0.00
2014-2-26,78.4,62.0,44.9,41.1,35.9,30.5,72,42,18,30.13,29.97,9,2,15,0.00
2014-2-27,77.1,61.8,43.5,39.3,36.4,34.1,72,42,23,30.10,29.91,11,2,26,0.00
2014-2-28,82.1,66.0,47.0,40.8,36.7,30.0,69,37,16,29.99,29.89,14,3,28,0.00
2014-3-1,67.2,58.0,49.6,50.6,44.9,35.6,92,65,32,30.05,29.90,15,2,29,0.75
2014-3-2,66.1,55.2,45.0,47.1,44.0,41.3,94,68,41,30.28,30.03,18,1,33,0.19
2014-3-3,73.3,58.8,45.2,47.6,44.8,42.0,91,63,34,30.21,30.01,9,1,14,0.00
2014-3-4,75.3,59.6,47.5,47.9,43.9,39.0,90,60,28,30.08,29.93,7,1,14,0.00
2014-3-5,78.6,60.2,42.5,45.3,40.4,35.3,89,53,22,30.15,30.06,6,1,12,0.00
2014-3-6,83.8,65.3,49.2,42.9,33.8,17.5,71,36,9,30.15,29.95,7,1,14,0.00
2014-3-7,78.6,62.5,45.3,43.0,37.6,29.3,76,45,17,29.99,29.87,15,2,27,0.00
2014-3-8,76.0,61.1,45.7,42.1,35.5,20.6,79,43,17,30.23,29.99,21,4,35,0.00
2014-3-9,71.0,60.9,52.4,36.0,27.4,19.1,49,30,14,30.32,30.14,20,9,36,0.00
2014-3-10,78.6,64.6,50.7,35.4,30.6,24.9,53,29,19,30.23,30.02,11,4,21,0.00
2014-3-11,77.0,61.0,44.3,39.5,32.5,24.1,69,39,15,30.11,29.98,10,2,20,0.00
2014-3-12,78.4,63.5,44.8,35.7,29.8,24.5,63,32,16,30.13,30.01,16,6,30,0.00
2014-3-13,80.9,66.8,54.5,32.1,28.4,24.7,40,24,16,30.04,29.84,15,6,29,0.00
2014-3-14,74.0,58.8,44.2,34.6,31.2,26.4,60,37,17,30.15,29.95,13,2,24,0.00
2014-3-15,76.4,61.0,42.1,35.5,24.8,-0.9,70,32,7,30.23,30.10,19,4,33,0.00
2014-3-16,76.7,62.8,45.9,17.7,8.7,1.3,27,13,7,30.36,30.18,19,4,34,0.00
2014-3-17,82.5,62.7,39.5,20.9,14.8,5.6,45,20,6,30.22,29.76,14,3,24,0.00
2014-3-25,73.0,66.4,60.1,35.3,32.4,29.0,37,29,20,29.88,29.84,9,2,19,0.00
2014-3-26,79.1,63.4,46.2,36.0,28.5,15.6,57,31,11,29.95,29.80,18,5,34,0.00
2014-3-27,71.8,59.5,44.4,41.9,34.1,26.3,70,41,19,30.08,29.94,13,3,23,0.00
2014-3-28,76.4,60.8,41.4,33.2,29.9,26.9,64,34,18,30.22,30.08,6,2,13,0.00
2014-3-29,85.9,65.8,46.3,29.8,22.6,1.5,48,24,4,30.22,29.98,6,1,11,0.00
2014-3-30,79.4,64.6,48.0,31.0,24.7,21.4,40,24,12,30.03,29.90,12,2,22,0.00
2014-3-31,82.9,63.7,42.5,31.1,21.2,11.7,53,25,7,30.10,29.94,13,2,24,0.00
2014-4-1,81.5,64.4,44.3,24.7,7.9,-28.9,39,16,1,30.02,29.87,19,5,33,0.00
2014-4-2,68.2,57.0,44.3,35.2,25.1,10.7,44,30,18,30.03,29.89,16,4,27,0.00
2014-4-3,68.9,56.7,40.2,30.3,22.9,17.8,52,29,16,30.16,30.03,9,1,18,0.00
2014-4-4,78.4,60.6,38.4,24.6,17.8,10.5,51,23,8,30.10,29.89,7,1,19,0.00
2014-4-5,74.0,60.3,42.8,23.3,19.2,15.8,39,21,13,30.01,29.88,10,2,24,0.00
2014-4-6,75.0,59.4,40.5,25.6,20.8,14.8,48,25,11,30.10,29.99,13,3,25,0.00
2014-4-7,84.4,64.5,44.9,23.9,19.4,9.1,37,20,6,30.21,30.09,8,1,15,0.00
2014-4-8,92.2,70.9,49.9,27.6,15.3,-9.8,34,15,2,30.23,30.07,10,2,16,0.00
2014-4-9,92.5,72.4,48.2,29.6,12.1,-8.0,33,12,2,30.12,29.98,7,2,14,0.00
2014-4-10,94.4,74.7,51.5,25.4,1.9,-99.9,28,9,1,30.09,29.92,7,1,18,0.00
2014-4-11,93.8,77.0,60.6,31.6,19.2,3.4,24,13,4,30.02,29.80,7,1,17,0.00
2014-4-12,85.4,71.6,53.7,31.1,20.0,9.4,28,15,7,29.89,29.72,15,4,26,0.00
2014-4-13,84.8,68.2,46.3,36.5,22.6,14.9,36,20,9,29.96,29.82,12,3,25,0.00
2014-4-14,83.5,68.3,50.6,32.4,15.0,-6.7,44,18,3,30.08,29.95,9,2,16,0.00
2014-4-15,89.9,71.7,50.9,17.8,10.9,-1.2,21,11,3,30.06,29.78,18,5,31,0.00
2014-4-16,87.7,70.1,46.7,26.7,11.8,1.7,30,13,4,29.92,29.75,10,2,26,0.00
2014-4-17,92.6,73.9,54.8,33.4,23.5,15.7,32,17,7,29.99,29.83,7,2,15,0.00
2014-4-18,77.0,67.8,58.6,45.4,38.4,25.9,45,35,21,30.02,29.89,14,4,24,0.00
2014-4-19,82.9,68.6,54.7,47.1,42.6,35.5,63,42,20,30.07,29.93,8,2,20,0.00
2014-4-20,88.1,70.8,51.9,44.6,40.4,37.2,65,37,18,30.12,29.99,8,2,17,0.00
2014-4-21,94.8,77.9,55.4,42.8,36.3,30.7,53,25,12,30.10,29.89,9,2,16,0.00
2014-4-22,94.5,77.3,58.3,41.7,33.6,21.8,48,23,8,29.95,29.73,14,3,26,0.00
2014-4-23,85.0,70.0,52.6,39.7,26.1,13.0,47,22,7,29.95,29.79,16,4,30,0.00
2014-4-24,89.0,70.9,48.1,27.4,17.7,12.5,32,15,6,30.03,29.88,9,2,19,0.00
2014-4-25,90.4,73.0,52.9,34.5,21.7,10.4,42,18,6,29.97,29.75,15,4,28,0.00
2014-4-26,71.4,62.5,49.9,50.1,32.4,22.1,82,35,17,29.96,29.71,21,5,41,0.02
2014-4-27,75.3,59.8,42.2,39.9,30.8,23.4,76,38,17,30.04,29.91,8,2,21,0.00
2014-4-28,81.9,65.0,44.0,32.9,28.4,24.9,53,28,14,30.05,29.92,14,3,26,0.00
2014-4-29,85.1,71.2,53.4,29.8,10.6,-10.0,40,12,3,30.06,29.90,10,3,18,0.00
2014-4-30,82.4,69.7,48.5,19.5,9.8,1.6,18,10,6,30.02,29.87,13,6,24,0.00
2014-5-1,83.6,71.6,59.5,27.8,23.2,18.3,22,17,10,30.04,29.91,21,9,37,0.00
2014-5-2,90.9,74.0,52.5,25.9,16.7,9.5,25,13,5,30.11,29.93,8,2,15,0.00
2014-5-3,97.3,79.6,56.1,27.6,15.0,0.9,26,11,3,30.03,29.86,8,2,15,0.00
2014-5-4,97.8,78.6,57.5,30.5,15.4,5.5,27,11,4,30.03,29.87,10,2,18,0.00
2014-5-5,92.2,75.8,56.4,36.1,22.3,13.2,34,15,6,30.00,29.83,13,3,23,0.00
2014-5-6,89.0,71.5,52.7,37.6,17.1,-5.7,38,17,3,29.88,29.67,18,6,31,0.00
2014-5-7,74.9,62.7,48.8,40.6,31.2,19.5,56,33,13,29.96,29.76,13,3,25,0.00
2014-5-8,79.2,65.0,45.5,33.8,27.9,21.0,54,28,12,30.06,29.97,7,1,18,0.00
2014-5-9,87.1,70.3,47.7,31.6,24.7,10.2,45,21,6,30.07,29.91,8,2,14,0.00
2014-5-10,92.8,75.5,53.9,37.2,30.4,24.2,39,21,10,29.94,29.69,13,4,26,0.00
2014-5-11,79.4,70.0,58.1,43.0,27.8,10.0,39,23,10,29.95,29.69,17,5,30,0.00
2014-5-12,83.8,67.4,45.7,24.3,17.0,10.2,29,15,7,30.07,29.95,12,2,20,0.00
2014-5-13,87.0,71.8,47.8,22.4,17.8,12.4,31,14,7,30.14,30.04,15,6,27,0.00
2014-5-14,85.2,74.2,62.6,26.3,21.6,15.7,24,15,8,30.19,30.06,23,14,40,0.00
2014-5-15,95.5,79.7,66.1,21.2,14.2,1.5,17,9,3,30.16,29.97,18,7,29,0.00
2014-5-16,100.5,80.4,56.8,29.8,15.6,-3.7,26,11,2,30.07,29.87,9,2,21,0.00
2014-5-17,100.5,82.3,59.1,34.3,12.3,-7.1,26,10,2,29.95,29.77,11,2,20,0.00
2014-5-18,99.2,80.1,56.4,28.8,4.8,-22.3,24,8,1,29.88,29.75,10,2,19,0.00
2014-5-19,96.9,80.5,59.4,21.5,7.7,-11.1,17,8,2,29.89,29.79,13,2,26,0.00
2014-5-20,96.3,79.4,58.3,25.1,15.8,4.5,20,10,4,29.93,29.81,15,4,27,0.00
2014-5-21,92.6,75.2,55.0,28.3,19.0,10.0,30,14,6,29.92,29.83,20,5,33,0.00
2014-5-22,91.7,75.1,54.1,34.8,22.1,12.2,29,15,8,29.97,29.83,19,5,36,0.00
2014-5-23,88.1,71.7,54.2,37.6,22.0,2.9,34,17,4,29.97,29.84,14,3,26,0.00
2014-5-24,85.7,71.9,54.5,40.4,33.9,24.2,51,27,12,30.00,29.88,15,2,23,0.00
2014-5-25,89.8,76.7,64.8,42.0,36.8,30.2,36,25,14,29.97,29.85,12,3,21,0.00
2014-5-26,96.7,80.8,59.7,42.9,37.5,32.7,44,23,13,30.01,29.87,13,3,25,0.00
2014-5-27,104.2,86.1,62.2,44.3,36.8,33.0,40,20,9,30.00,29.79,7,2,17,0.00
2014-5-28,103.3,86.9,67.1,41.3,32.3,23.5,30,16,9,29.90,29.72,9,2,22,0.00
2014-5-29,88.1,80.9,71.3,49.3,40.4,29.0,31,24,16,29.97,29.80,15,2,24,0.00
2014-5-30,102.3,86.4,63.8,47.4,41.8,36.2,46,23,12,29.91,29.74,7,2,18,0.00
2014-5-31,104.4,88.4,67.3,46.2,36.2,23.4,36,18,7,29.85,29.72,11,2,26,0.00
2014-6-1,103.6,85.4,61.9,37.5,28.6,18.4,36,15,5,29.85,29.73,8,2,17,0.00
2014-6-2,108.3,89.8,65.1,34.1,22.9,8.2,26,11,3,29.84,29.72,7,2,17,0.00
2014-6-3,107.0,89.5,67.2,42.9,30.8,23.8,28,14,6,29.82,29.69,10,2,23,0.00
2014-6-4,106.7,86.7,63.9,37.6,19.3,-1.1,26,11,2,29.81,29.68,12,2,22,0.00
2014-6-5,106.3,87.8,63.8,30.8,12.3,-16.0,23,8,1,29.79,29.63,11,2,23,0.00
2014-6-6,103.8,84.9,63.9,24.5,3.9,-19.2,15,6,1,29.76,29.65,9,2,18,0.00
2014-6-7,103.1,85.6,60.8,38.3,24.0,8.0,24,12,6,29.78,29.65,9,2,21,0.00
2014-6-8,101.9,86.5,65.0,45.6,35.3,21.3,31,17,6,29.80,29.66,8,2,16,0.00
2014-6-9,105.9,87.9,69.0,50.7,37.0,19.0,47,21,7,29.85,29.68,8,2,18,0.00
2014-6-10,105.7,88.4,65.9,49.3,37.1,12.0,36,19,4,29.82,29.69,13,3,22,0.00
2014-6-11,102.1,88.3,71.5,54.6,46.0,35.4,47,25,15,29.84,29.73,13,4,24,0.00
2014-6-12,104.4,89.1,69.0,51.0,41.9,32.7,40,22,9,29.92,29.76,10,2,20,0.00
2014-6-13,104.5,89.9,71.4,55.9,48.9,42.8,50,27,14,29.87,29.68,14,4,27,0.00
2014-6-14,101.9,87.8,68.7,47.7,42.5,32.8,37,22,12,29.80,29.66,14,5,27,0.00
2014-6-15,101.3,86.2,66.6,40.1,30.5,11.4,31,16,4,29.83,29.73,13,4,25,0.00
2014-6-16,101.0,86.7,66.2,44.8,36.1,26.3,28,17,11,29.87,29.75,16,5,32,0.00
2014-6-17,99.3,85.8,69.2,58.9,46.7,42.7,43,27,18,29.89,29.75,19,4,35,0.01
2014-6-18,97.6,84.0,66.1,51.7,45.1,41.2,46,27,16,29.86,29.77,15,5,30,0.00
2014-6-19,100.3,85.7,65.9,47.1,41.4,38.0,41,23,13,29.94,29.80,8,2,19,0.00
2014-6-20,104.9,89.3,67.0,44.3,38.6,35.2,37,19,10,29.91,29.73,10,2,18,0.00
2014-6-21,104.1,89.3,68.1,47.2,40.9,36.7,39,20,11,29.88,29.73,11,3,20,0.00
2014-6-22,104.6,89.0,68.5,43.2,38.8,31.5,35,19,10,29.90,29.72,9,3,22,0.00
2014-6-23,103.7,88.3,69.0,43.8,32.8,19.7,31,15,6,29.90,29.75,11,2,21,0.00
2014-6-24,102.5,88.3,67.4,45.2,37.4,28.6,32,17,10,29.95,29.77,10,3,22,0.00
2014-6-25,104.1,89.4,68.3,51.6,43.6,35.3,39,21,13,29.91,29.73,11,3,23,0.00
2014-6-26,104.2,89.7,70.8,53.9,43.3,30.9,46,23,8,29.86,29.68,13,4,25,0.00
2014-6-27,101.7,87.3,66.8,42.6,36.6,30.2,32,18,9,29.80,29.65,14,3,28,0.00
2014-6-28,104.4,88.6,69.3,45.1,39.5,34.7,36,20,10,29.83,29.74,8,2,23,0.00
2014-6-29,106.9,91.3,73.8,59.4,49.0,36.1,50,26,10,29.90,29.74,8,2,17,0.00
2014-6-30,106.8,91.3,72.3,60.8,45.5,29.2,57,25,7,29.89,29.70,9,2,19,0.00
2014-7-1,105.8,90.7,71.0,47.5,39.5,33.9,37,18,10,29.87,29.71,9,2,19,0.00
2014-7-2,104.7,91.2,72.2,57.1,48.0,36.6,40,24,14,29.90,29.72,13,3,22,0.00
2014-7-3,105.6,86.5,75.2,70.5,57.6,50.4,82,41,17,30.04,29.77,10,2,24,0.06
2014-7-4,100.0,84.3,73.8,65.1,60.4,57.2,66,47,25,30.05,29.92,11,2,20,0.00
2014-7-5,99.7,81.7,69.2,69.4,63.3,58.7,93,58,27,30.07,29.89,20,1,41,0.72
2014-7-6,100.4,85.6,71.8,69.6,63.7,56.9,90,52,25,30.01,29.83,10,2,19,0.00
2014-7-7,95.8,83.0,75.8,67.4,64.2,59.9,70,55,33,29.92,29.82,11,1,29,0.00
2014-7-8,99.7,85.0,70.1,65.8,62.8,58.0,81,50,27,29.99,29.83,15,2,28,0.00
2014-7-9,97.7,84.5,73.7,67.1,62.0,55.8,75,49,27,30.00,29.80,16,2,29,0.00
2014-7-10,100.8,86.5,74.4,67.4,61.2,55.6,76,46,23,29.94,29.76,13,2,23,0.00
2014-7-11,100.3,87.6,75.6,68.4,60.7,56.8,76,42,28,29.97,29.78,15,3,26,0.04
2014-7-12,100.6,84.5,71.2,67.4,62.2,56.4,84,51,27,29.96,29.82,11,2,19,0.02
2014-7-13,103.2,84.1,70.3,67.9,61.5,54.2,90,51,22,30.00,29.80,17,2,33,0.12
2014-7-14,98.0,81.5,68.6,71.3,66.4,61.1,94,64,32,30.03,29.93,12,1,27,0.02
2014-7-15,89.7,81.5,75.5,67.1,63.6,61.0,66,55,41,30.05,29.91,7,2,15,0.00
2014-7-16,98.5,85.0,69.1,64.7,60.2,51.1,78,47,24,29.98,29.80,11,2,22,0.00
2014-7-17,99.3,84.8,72.4,59.1,50.3,42.7,60,34,15,29.95,29.82,10,2,22,0.00
2014-7-18,99.8,85.0,68.3,53.6,48.1,41.6,45,30,17,29.98,29.84,8,2,16,0.00
2014-7-19,102.0,87.9,72.2,56.8,52.7,48.9,53,32,18,29.96,29.83,8,2,16,0.00
2014-7-20,102.4,88.6,73.5,52.2,47.1,42.3,46,26,15,29.98,29.84,7,1,17,0.00
2014-7-21,104.3,89.7,73.6,57.9,47.3,43.1,49,25,14,30.01,29.85,11,2,20,0.00
2014-7-22,107.9,91.5,72.8,57.6,48.2,43.5,40,24,15,29.98,29.84,16,1,27,0.00
2014-7-23,107.1,94.9,83.2,61.5,57.2,52.2,44,30,17,29.94,29.78,18,5,30,0.00
2014-7-24,108.8,95.5,79.7,61.6,51.2,40.0,54,25,12,29.87,29.72,12,4,22,0.00
2014-7-25,102.7,85.8,75.1,66.1,61.6,55.0,61,46,23,29.95,29.79,13,1,32,0.00
2014-7-26,100.7,87.4,70.2,63.1,60.6,56.6,73,43,28,30.00,29.80,13,2,22,0.00
2014-7-27,100.1,86.4,70.0,66.6,60.2,56.7,88,44,25,30.07,29.82,22,5,36,0.02
2014-7-28,95.7,83.8,70.3,67.2,61.6,57.5,88,51,29,30.09,29.96,7,1,12,0.03
2014-7-29,102.9,89.4,71.5,64.0,58.0,51.6,71,38,19,30.01,29.84,8,2,18,0.00
2014-7-30,104.9,89.0,74.2,58.8,55.6,51.4,54,34,19,29.93,29.81,14,2,27,0.00
2014-7-31,102.8,84.0,71.1,72.6,61.2,54.8,83,49,22,29.97,29.83,19,1,28,0.61
2014-8-1,94.0,83.4,72.5,68.5,63.6,56.9,83,54,30,30.03,29.84,9,2,18,0.01
2014-8-2,87.4,74.8,69.9,70.5,67.1,62.8,95,79,46,30.01,29.91,11,2,23,0.29
2014-8-3,96.3,81.9,66.7,70.3,63.1,53.5,97,59,26,30.03,29.88,6,1,14,0.00
2014-8-4,98.9,85.4,70.7,66.0,57.9,45.0,77,43,21,29.98,29.83,9,2,18,0.00
2014-8-5,101.8,86.4,67.5,55.1,46.5,33.8,64,29,10,30.00,29.87,7,2,16,0.00
2014-8-6,102.5,87.5,68.7,60.9,51.0,40.7,67,32,16,29.97,29.81,9,2,16,0.00
2014-8-7,100.1,85.8,70.2,58.4,50.6,44.0,57,32,18,29.95,29.80,8,2,14,0.00
2014-8-8,100.7,86.1,71.7,65.3,58.8,49.6,72,43,19,29.94,29.76,10,2,21,0.00
2014-8-9,98.9,85.2,73.4,66.6,61.2,52.1,72,48,26,29.99,29.79,12,3,24,0.02
2014-8-10,100.4,85.5,68.7,63.9,59.5,55.2,75,44,25,29.99,29.84,9,2,17,0.00
2014-8-11,99.8,88.9,77.1,61.9,58.7,54.7,58,38,24,29.95,29.82,15,6,27,0.00
2014-8-12,96.6,81.3,71.9,70.8,63.8,57.2,90,58,32,29.98,29.85,12,5,22,0.17
2014-8-13,96.8,80.2,67.6,73.8,65.9,63.0,92,65,36,30.04,29.91,9,2,17,0.09
2014-8-14,93.0,80.3,70.2,70.7,66.8,63.7,89,65,41,29.99,29.90,18,0,37,0.02
2014-8-15,97.8,79.3,71.9,71.1,65.8,57.5,87,66,29,30.02,29.89,22,1,36,0.36
2014-8-16,99.2,83.2,69.6,69.1,65.0,55.4,90,58,32,30.04,29.86,15,2,30,0.12
2014-8-17,100.3,81.0,67.4,69.3,64.2,59.6,92,61,30,30.02,29.80,24,2,43,0.16
2014-8-18,96.3,80.2,66.7,67.0,62.6,54.4,93,59,25,29.96,29.80,16,2,28,0.95
2014-8-19,85.1,74.5,68.1,70.7,67.4,61.9,95,80,52,29.93,29.82,10,0,20,14.26
2014-8-20,92.9,78.9,65.1,67.5,62.9,55.6,94,62,29,30.00,29.85,0,0,1,0.03
2014-8-21,84.7,75.9,68.8,68.1,65.3,63.1,86,71,50,30.01,29.92,1,0,6,0.00
2014-8-22,91.7,78.5,65.6,65.6,61.7,57.9,91,60,34,30.02,29.90,9,1,16,0.00
2014-8-23,94.0,81.0,67.5,66.2,59.9,54.5,85,53,29,29.97,29.82,7,1,16,0.00
2014-8-24,98.5,83.7,67.2,64.5,58.2,53.0,80,46,23,29.91,29.79,7,1,15,0.00
2014-8-25,92.6,80.8,69.7,67.8,63.9,60.4,85,58,35,30.00,29.83,10,1,19,0.00
2014-8-26,94.8,79.6,70.4,70.0,65.0,59.9,85,63,33,30.01,29.91,9,1,17,0.02
2014-8-27,96.7,81.6,66.8,67.9,64.1,59.9,90,59,32,30.08,29.93,8,1,15,0.00
2014-8-28,98.6,84.2,69.5,62.7,57.2,48.7,70,43,23,29.99,29.80,8,1,18,0.00
2014-8-29,102.6,84.8,65.3,58.3,49.2,42.8,68,34,14,29.89,29.75,8,1,13,0.00
2014-8-30,105.2,86.7,67.7,54.6,46.1,40.5,56,27,12,29.88,29.74,7,1,18,0.00
2014-8-31,103.2,86.4,67.5,58.5,48.6,40.0,54,30,13,29.90,29.77,9,2,21,0.00
2014-9-1,102.7,85.1,65.4,55.5,48.5,43.2,60,32,15,29.89,29.77,7,1,16,0.00
2014-9-2,104.4,85.5,66.7,58.6,48.6,38.8,65,32,11,29.89,29.71,6,1,14,0.00
2014-9-3,98.7,85.8,70.1,62.1,53.8,46.0,57,35,20,29.80,29.67,6,1,12,0.00
2014-9-4,101.4,85.0,68.4,66.8,57.4,52.2,92,44,20,29.96,29.64,17,2,34,0.33
2014-9-5,93.4,79.9,66.1,67.0,63.4,59.6,94,61,34,29.96,29.85,9,1,19,0.00
2014-9-6,92.1,76.4,68.8,71.3,66.6,63.0,92,74,41,29.99,29.89,11,1,25,0.14
2014-9-7,93.2,83.1,73.8,69.2,63.7,60.8,83,54,35,29.97,29.80,14,6,28,0.01
2014-9-8,78.0,72.4,68.6,71.0,68.9,66.5,96,89,71,29.97,29.84,5,0,12,1.41
2014-9-9,86.9,76.6,68.2,72.8,66.7,62.3,95,74,48,30.01,29.88,7,1,13,0.02
2014-9-10,92.2,77.4,64.1,65.3,60.8,54.5,92,61,31,29.98,29.85,6,1,12,0.00
2014-9-11,96.7,80.6,63.5,64.6,58.3,48.5,91,52,20,29.92,29.79,4,0,11,0.00
2014-9-12,100.5,83.8,66.8,64.5,58.9,53.5,80,46,22,29.87,29.73,14,2,28,0.00
2014-9-13,89.0,80.7,73.1,60.2,56.8,55.3,55,45,34,29.91,29.80,22,13,39,0.00
2014-9-14,94.1,83.3,74.0,60.6,57.6,55.1,53,42,32,29.91,29.77,17,9,30,0.00
2014-9-15,97.3,85.6,78.3,65.5,59.9,57.1,65,43,29,29.91,29.79,14,6,25,0.00
2014-9-16,80.3,76.1,70.6,68.6,64.3,59.7,80,67,50,29.96,29.83,16,9,28,0.06
2014-9-17,78.4,74.6,71.1,69.5,65.6,63.0,88,74,64,29.87,29.76,14,8,27,0.13
2014-9-18,81.4,74.8,70.0,68.1,65.0,62.3,81,72,56,29.86,29.77,11,2,23,0.01
2014-9-19,90.8,77.9,69.2,71.0,67.3,64.7,91,71,43,29.90,29.79,6,0,12,0.00
2014-9-20,90.2,78.3,67.7,70.4,66.7,63.9,92,69,46,29.94,29.84,8,1,14,0.01
2014-9-21,94.9,80.3,67.5,68.2,65.0,61.8,87,62,38,30.00,29.86,19,3,29,0.00
2014-9-22,95.7,83.2,69.1,66.6,62.5,58.7,79,52,31,30.01,29.86,7,2,15,0.00
2014-9-23,99.0,85.0,71.7,66.4,61.4,56.4,71,47,26,29.96,29.82,10,3,16,0.00
2014-9-24,99.6,85.8,69.7,63.2,57.8,54.4,62,40,24,29.93,29.81,10,2,19,0.00
2014-9-25,101.0,84.8,69.5,63.3,58.6,52.2,71,44,21,29.96,29.82,9,1,22,0.00
2014-9-26,94.4,79.6,68.3,65.3,60.9,58.3,73,55,31,29.93,29.81,11,2,20,0.00
2014-9-27,92.7,77.5,63.8,64.0,60.1,56.2,84,58,33,29.89,29.74,11,2,22,0.00
2014-9-28,89.7,77.6,66.9,64.1,59.0,51.9,81,55,30,29.90,29.82,12,2,24,0.00
2014-9-29,89.2,75.4,59.9,63.8,53.5,39.1,79,50,25,29.91,29.81,7,1,15,0.00
2014-9-30,88.5,70.0,53.0,47.3,39.8,30.3,66,37,13,29.93,29.82,8,1,14,0.00
2014-10-1,89.1,71.6,53.9,51.0,41.2,35.4,65,37,15,29.93,29.81,7,1,14,0.00
2014-10-2,90.6,71.7,52.2,48.9,38.8,32.5,70,35,14,30.08,29.93,8,1,17,0.00
2014-10-3,95.7,75.1,51.3,43.0,33.0,26.0,55,26,9,30.13,30.00,14,4,25,0.00
2014-10-4,96.7,76.1,55.2,47.9,38.2,30.1,59,29,10,30.06,29.92,9,1,16,0.00
2014-10-5,93.2,75.2,55.6,51.4,44.8,32.8,62,36,21,30.03,29.87,8,1,19,0.00
2014-10-6,92.1,74.1,58.0,51.6,40.1,31.4,64,33,12,30.02,29.92,7,1,12,0.00
2014-10-7,91.9,75.5,61.9,60.8,47.6,38.9,70,40,20,30.03,29.89,7,2,18,0.01
2014-10-8,81.9,68.5,63.1,65.9,62.0,55.6,95,81,48,29.98,29.81,16,2,29,1.60
2014-10-9,72.5,65.3,61.5,64.5,62.3,60.1,97,90,67,29.98,29.91,6,1,12,0.52
2014-10-10,83.7,74.3,62.4,62.4,60.0,57.9,43,41,37,30.02,29.93,8,1,12,0.00
2014-10-11,87.6,70.6,56.7,59.9,55.3,47.8,43,41,37,30.02,29.89,8,1,10,0.00
2014-10-12,84.6,69.0,55.0,59.4,52.4,44.1,40,38,35,29.93,29.82,17,1,22,0.00
2014-10-13,86.7,71.6,57.7,52.2,41.7,33.6,36,34,30,30.04,29.91,12,2,17,0.00
2014-10-14,88.9,74.2,54.1,43.7,37.6,31.8,30,29,27,30.04,29.88,16,5,23,0.00
2014-10-15,93.4,72.8,55.9,56.8,47.7,39.7,33,31,28,29.98,29.87,6,1,10,0.00
2014-10-16,89.1,71.5,57.2,56.1,51.0,43.5,35,33,30,30.00,29.85,7,1,10,0.00
2014-10-17,82.2,67.6,57.0,55.9,47.5,39.0,33,32,29,29.99,29.83,20,2,25,0.00
2014-10-18,91.0,71.7,54.0,53.6,47.4,40.8,32,31,30,29.89,29.75,12,1,16,0.00
2014-10-19,88.2,68.8,59.4,59.0,51.3,44.1,33,32,30,29.89,29.74,14,2,21,0.11
2014-10-20,84.6,71.9,65.8,57.7,50.9,41.7,34,32,31,29.93,29.81,16,5,25,0.01
2014-10-21,84.9,73.0,63.7,54.1,51.0,48.2,34,33,31,29.92,29.80,20,5,23,0.00
2014-10-22,89.2,72.2,57.6,57.2,51.2,48.0,35,34,32,29.99,29.88,10,1,14,0.00
2014-10-23,90.9,73.1,55.8,55.4,49.4,45.9,35,33,31,30.06,29.94,10,2,12,0.00
2014-10-24,91.9,72.7,54.3,54.9,48.7,45.9,36,33,30,30.10,29.97,7,1,10,0.00
2014-10-25,95.0,76.8,57.4,56.3,51.0,45.3,38,34,31,30.08,29.94,8,2,14,0.00
2014-10-26,88.3,72.9,58.5,59.0,54.3,45.3,38,35,32,29.96,29.82,10,2,14,0.00
2014-10-27,83.1,68.3,59.2,58.1,52.5,48.7,36,35,33,29.95,29.81,10,1,13,0.00
2014-10-28,85.1,67.7,52.2,55.2,48.5,43.7,35,33,30,30.04,29.93,9,2,10,0.00
2014-10-29,89.6,68.7,49.6,51.4,44.7,39.0,33,31,27,30.07,29.95,8,1,11,0.00
2014-10-30,91.9,72.2,50.2,50.4,40.6,32.4,32,29,26,30.06,29.92,14,2,18,0.00
2014-10-31,90.7,77.5,62.4,51.3,46.0,39.7,32,29,26,29.97,29.82,15,4,21,0.00
2014-11-1,85.6,69.4,56.5,52.9,46.0,36.3,32,31,29,29.91,29.80,19,2,23,0.00
2014-11-2,71.1,63.9,53.2,54.7,47.5,34.7,34,32,27,29.96,29.84,13,2,19,0.00
2014-11-3,70.0,54.8,39.9,39.6,33.8,28.2,27,25,24,30.04,29.94,11,1,15,0.00
2014-11-4,72.3,56.4,37.8,35.2,32.0,29.3,25,24,22,30.11,29.99,14,2,21,0.00
2014-11-5,74.8,65.3,56.8,40.3,37.3,34.7,26,25,23,30.15,30.03,32,10,38,0.00
2014-11-6,76.5,66.8,59.4,43.5,39.5,34.2,28,26,24,30.28,30.15,27,9,31,0.00
2014-11-7,82.0,66.5,53.4,46.4,41.7,37.4,30,28,26,30.22,30.01,22,6,28,0.00
2014-11-8,83.3,66.5,45.3,41.5,36.5,32.7,29,27,24,30.13,30.02,22,6,28,0.00
2014-11-9,84.6,70.1,54.0,40.1,35.8,32.9,29,26,23,30.06,29.83,18,4,25,0.00
2014-11-10,83.5,64.2,48.0,44.2,38.4,34.7,28,27,26,29.91,29.78,14,1,21,0.00
2014-11-11,79.7,64.0,47.7,51.1,45.7,41.7,30,28,26,29.96,29.84,8,1,15,0.00
2014-11-12,78.6,63.0,49.6,53.4,46.2,42.8,31,30,29,29.99,29.86,9,1,12,0.00
2014-11-13,78.4,61.7,47.8,52.3,45.0,41.5,31,30,28,30.06,29.94,9,1,16,0.00
2014-11-14,77.5,61.8,48.4,53.8,47.1,42.1,32,30,28,30.01,29.88,12,1,15,0.00
2014-11-15,73.9,60.1,48.4,52.9,45.0,37.8,33,32,30,30.06,29.92,8,1,14,0.00
2014-11-16,68.2,55.6,46.2,50.7,34.5,8.4,33,29,24,30.14,29.88,17,3,22,0.00
2014-11-17,67.1,55.5,45.7,22.8,16.3,8.6,24,20,18,30.19,30.06,26,8,32,0.00
2014-11-18,71.1,57.7,42.4,19.6,15.5,7.2,21,20,18,30.25,30.12,18,5,25,0.00
2014-11-19,74.7,55.0,37.8,23.7,16.8,9.0,22,21,19,30.21,30.06,14,1,24,0.00
2014-11-20,73.9,52.5,35.8,34.7,21.9,8.6,22,21,19,30.13,29.99,10,0,13,0.00
2014-11-21,70.0,52.7,40.5,37.9,27.5,20.3,23,22,20,30.03,29.88,9,0,13,0.00
2014-11-22,71.2,50.7,35.2,39.7,31.7,25.2,26,24,22,30.13,29.98,6,0,12,0.00
2014-11-23,66.9,52.0,38.5,34.7,23.2,-11.2,25,23,20,30.16,29.98,19,3,22,0.00
2014-11-24,65.5,48.6,32.4,10.8,4.8,-9.2,21,19,17,30.33,30.15,13,1,13,0.00
2014-11-25,66.0,50.8,36.3,10.4,4.9,-1.7,18,17,15,30.44,30.30,18,3,27,0.00
2014-11-26,75.7,51.7,33.3,22.3,14.5,6.3,18,17,15,30.35,30.19,4,0,8,0.00
2014-11-27,81.7,63.9,39.9,24.8,21.7,19.4,19,18,17,30.25,30.12,25,8,30,0.00
2014-11-28,83.7,66.8,49.6,30.4,23.1,15.4,21,19,18,30.13,29.96,16,3,25,0.00
2014-11-29,80.2,58.3,41.2,32.5,25.9,20.7,21,20,18,30.04,29.90,7,1,11,0.00
2014-11-30,75.6,55.8,39.7,34.0,26.1,22.3,22,21,19,30.14,29.98,8,1,13,0.00
2014-12-1,73.0,53.7,39.4,34.7,29.6,25.0,23,22,20,30.22,30.06,10,1,13,0.00
2014-12-2,71.4,57.3,42.6,44.1,33.1,26.8,24,23,22,30.12,29.98,7,0,9,0.00
2014-12-3,78.3,65.5,56.8,53.6,47.2,38.1,29,26,24,30.10,30.00,11,1,14,0.00
2014-12-4,60.8,56.7,49.5,56.5,53.1,47.5,35,32,28,30.13,29.99,9,1,13,0.87
2014-12-5,70.3,57.1,44.4,53.6,47.6,43.2,35,33,32,30.21,30.10,15,3,18,0.01
2014-12-6,67.6,58.6,48.2,51.6,45.6,41.9,34,33,32,30.22,30.12,18,4,22,0.00
2014-12-7,75.2,60.6,45.1,47.3,42.5,38.7,34,33,31,30.24,30.10,19,5,22,0.00
2014-12-8,72.9,65.2,53.1,46.9,40.9,38.3,32,31,30,30.15,30.06,18,7,25,0.00
2014-12-9,76.3,61.8,50.5,49.1,45.0,40.8,34,33,31,30.11,29.99,18,1,22,0.00
2014-12-10,76.3,57.3,42.6,50.7,45.0,40.5,35,34,33,30.07,29.95,7,0,9,0.00
2014-12-11,74.8,55.0,42.4,48.0,38.3,25.0,34,33,31,30.11,30.02,6,0,8,0.00
2014-12-12,76.6,58.8,43.7,48.4,40.9,34.0,34,32,30,30.15,30.01,10,0,14,0.00
2014-12-13,58.6,50.1,39.7,52.3,46.3,38.1,38,35,33,30.11,29.99,11,1,15,0.27
2014-12-14,58.5,44.5,35.1,44.8,38.7,33.8,34,32,30,30.14,30.06,4,0,8,0.01
2014-12-15,67.5,47.7,33.3,42.3,37.0,29.5,33,31,29,30.13,29.99,5,0,7,0.00
2014-12-16,64.8,51.2,41.4,45.0,41.2,37.0,34,32,31,30.10,29.95,7,0,9,0.00
2014-12-17,53.1,47.8,44.2,48.0,44.7,37.8,37,34,32,30.16,30.03,13,1,16,0.73
2014-12-18,57.7,47.8,37.6,48.9,42.7,35.4,37,35,33,30.21,30.08,13,2,17,0.01
2014-12-19,60.6,45.3,32.7,43.2,36.8,31.1,33,32,30,30.26,30.11,11,1,14,0.01
2014-12-20,62.2,46.6,33.6,40.5,36.7,31.1,32,30,28,30.17,30.05,8,0,13,0.00
2014-12-21,63.3,46.8,35.2,43.2,38.0,33.6,33,31,28,30.15,30.03,5,0,9,0.00
2014-12-22,63.5,48.2,36.0,43.7,39.2,34.2,33,31,29,30.07,29.91,8,0,10,0.00
2014-12-23,61.7,48.8,37.6,40.1,25.2,11.7,32,29,25,30.17,29.97,24,3,31,0.01
2014-12-24,64.8,49.4,35.2,30.9,19.6,12.6,26,25,23,30.18,29.86,13,2,22,0.00
2014-12-25,68.4,50.7,41.2,41.2,30.4,18.0,28,26,24,29.87,29.68,20,3,31,0.09
2014-12-26,52.3,42.2,29.1,40.1,24.5,14.9,28,25,21,30.11,29.84,12,1,14,0.00
2014-12-27,53.1,36.9,24.6,26.6,22.7,18.9,21,20,19,30.30,30.11,12,1,14,0.00
2014-12-28,58.3,40.4,25.3,29.3,23.2,16.9,21,20,18,30.30,30.11,6,0,8,0.00
2014-12-29,63.0,40.9,25.5,28.9,19.8,2.5,21,19,18,30.19,30.02,5,0,7,0.00
2014-12-30,71.1,47.2,28.2,28.4,18.8,2.7,20,19,17,30.06,29.87,17,1,19,0.00
2014-12-31,58.8,44.0,32.2,39.2,31.9,18.7,25,21,19,30.03,29.83,15,1,23,0.33
2015-1-1,45.9,35.5,27.1,36.3,30.1,25.3,24,23,21,30.10,30.01,6,0,14,0.16
2015-1-2,39.2,32.5,26.2,30.2,28.0,24.3,24,23,21,30.12,29.97,5,0,8,0.00